Weather History for KDAL - January, 2014

Change the Weather History Date:

Tuesday, January 21, 2014

  Actual Average Record
Temperature  
Mean Temperature 44 °F -  
Max Temperature 51 °F 55 °F 79 °F (2005)
Min Temperature 37 °F 37 °F 23 °F (2011)
Degree Days  
Heating Degree Days 21    
Moisture  
Dew Point 14 °F    
Average Humidity 31    
Maximum Humidity 41    
Minimum Humidity 20    
Precipitation  
Precipitation 0.00 in - - ()
Sea Level Pressure  
Sea Level Pressure 30.31 in    
Wind  
Wind Speed 12 mph (North)    
Max Wind Speed 21 mph    
Max Gust Speed 26 mph    
Visibility 10 miles    
Events      
Averages and records for this station are not official NWS values.
T = Trace of Precipitation, MM = Missing Value Source: NWS Daily Summary

Daily Weather History Graph

Daily Weather History Graph

Search for Another Location

Airport or City:

Trip Planner

Search our weather history database for the weather conditions in past years. The results will help you decide how hot, cold, wet, or windy it might be!

Date:

Astronomy

Jan. 21, 2014 Rise Set
Actual Time 7:28 AM CST 5:49 PM CST
Civil Twilight 7:01 AM CST 6:16 PM CST
Nautical Twilight 6:31 AM CST 6:46 PM CST
Astronomical Twilight 6:02 AM CST 7:15 PM CST
Moon 11:03 PM CST (1/21) 10:17 AM CST (1/21)
Length of Visible Light 11h 14m
Length of Day
10h 21m
Waning Gibbous, 74% of the Moon is Illuminated
Jan 21
Waning Gibbous
Jan 23
Last Quarter
Jan 30
New
Feb 6
First Quarter
Feb 14
Full

Hourly Weather History & Observations

Time (CST) Temp. Windchill Dew Point Humidity Pressure Visibility Wind Dir Wind Speed Gust Speed Precip Events Conditions
12:53 AM 51.1 °F - 21.9 °F 32% 30.23 in 10.0 mi North 11.5 mph - N/A   Clear
1:53 AM 48.9 °F - 23.0 °F 36% 30.26 in 10.0 mi North 8.1 mph - N/A   Clear
2:53 AM 46.9 °F - 23.0 °F 39% 30.29 in 10.0 mi North 9.2 mph - N/A   Clear
3:53 AM 46.9 °F - 19.9 °F 34% 30.31 in 10.0 mi North 16.1 mph 23.0 mph N/A   Clear
4:53 AM 45.0 °F 37.4 °F 19.0 °F 36% 30.32 in 10.0 mi North 18.4 mph 24.2 mph N/A   Clear
5:53 AM 43.0 °F 36.4 °F 18.0 °F 37% 30.35 in 10.0 mi North 12.7 mph 20.7 mph N/A   Clear
6:53 AM 42.1 °F 33.1 °F 16.0 °F 35% 30.36 in 10.0 mi North 20.7 mph 26.5 mph N/A   Clear
7:53 AM 39.0 °F 30.6 °F 17.1 °F 41% 30.39 in 10.0 mi NNW 15.0 mph 23.0 mph N/A   Clear
8:53 AM 39.0 °F 29.6 °F 12.9 °F 34% 30.43 in 10.0 mi NNW 18.4 mph 26.5 mph N/A   Clear
9:53 AM 41.0 °F 31.9 °F 10.9 °F 29% 30.45 in 10.0 mi North 19.6 mph 25.3 mph N/A   Clear
10:53 AM 41.0 °F 32.8 °F 9.0 °F 27% 30.45 in 10.0 mi NNW 16.1 mph 24.2 mph N/A   Clear
11:53 AM 43.0 °F 36.0 °F 8.1 °F 24% 30.43 in 10.0 mi NNE 13.8 mph 19.6 mph N/A   Clear
12:53 PM 43.0 °F 36.0 °F 12.0 °F 28% 30.39 in 10.0 mi NNW 13.8 mph 19.6 mph N/A   Clear
1:53 PM 46.0 °F 41.9 °F 10.9 °F 24% 30.35 in 10.0 mi NNW 8.1 mph - N/A   Clear
2:53 PM 46.9 °F - 10.9 °F 23% 30.33 in 10.0 mi NW 10.4 mph - N/A   Clear
3:53 PM 46.9 °F - 7.0 °F 20% 30.31 in 10.0 mi NNW 6.9 mph - N/A   Clear
4:53 PM 46.9 °F - 7.0 °F 20% 30.30 in 10.0 mi NNW 3.5 mph - N/A   Clear
5:53 PM 45.0 °F - 8.1 °F 22% 30.27 in 10.0 mi Calm Calm - N/A   Clear
6:53 PM 42.1 °F 39.2 °F 10.0 °F 27% 30.26 in 10.0 mi SE 4.6 mph - N/A   Clear
7:53 PM 41.0 °F 39.0 °F 14.0 °F 33% 30.24 in 10.0 mi East 3.5 mph - N/A   Clear
8:53 PM 37.0 °F 31.6 °F 14.0 °F 39% 30.23 in 10.0 mi SSE 6.9 mph - N/A   Clear
9:53 PM 41.0 °F 35.8 °F 10.9 °F 29% 30.20 in 10.0 mi SSE 8.1 mph - N/A   Clear
10:53 PM 39.9 °F 35.1 °F 12.0 °F 32% 30.19 in 10.0 mi South 6.9 mph - N/A   Clear
11:53 PM 39.0 °F 34.8 °F 12.9 °F 34% 30.18 in 10.0 mi South 5.8 mph - N/A   Clear